• In Belarus
  • List of Countries
  • For 7 days
  • Water Temperature
  • Satellite Maps
  • Weather Map
  • Weather Widgets
  • user-avatar
    Login

    Hourly Weather Chincholi

    Today, 25 September, Tuesday

    Time Temperature Precipitation Wind Pressure Humidity
    00:00 +28°C° 0 mm 1 mps 719 mmHg 68%
    01:00 +28°C° 0 mm 1 mps 718 mmHg 70%
    02:00 +28°C° 0 mm 1 mps 718 mmHg 71%
    03:00 +27°C° 0 mm 1 mps 718 mmHg 73%
    04:00 +27°C° 0 mm 1 mps 718 mmHg 74%
    05:00 +27°C° 0 mm 1 mps 718 mmHg 81%
    06:00 +28°C° 0.2 mm 1 mps 718 mmHg 77%
    07:00 +29°C° 0.2 mm 1 mps 719 mmHg 73%
    08:00 +30°C° 0.2 mm 1 mps 719 mmHg 69%
    09:00 +31°C° 0.4 mm 1 mps 719 mmHg 64%
    10:00 +32°C° 0.4 mm 1 mps 719 mmHg 60%
    11:00 +33°C° 0 mm 1 mps 720 mmHg 55%
    12:00 +33°C° 1.1 mm 1 mps 719 mmHg 55%
    13:00 +33°C° 1.1 mm 1 mps 718 mmHg 55%
    14:00 +34°C° 1.1 mm 2 mps 717 mmHg 54%
    15:00 +34°C° 1.3 mm 2 mps 717 mmHg 59%
    16:00 +32°C° 1.3 mm 2 mps 717 mmHg 63%
    17:00 +31°C° 1.3 mm 2 mps 717 mmHg 67%
    18:00 +30°C° 0.9 mm 2 mps 717 mmHg 70%
    19:00 +29°C° 0.9 mm 2 mps 717 mmHg 73%
    20:00 +28°C° 0.9 mm 2 mps 717 mmHg 75%
    21:00 +28°C° 0 mm 2 mps 718 mmHg 75%
    22:00 +28°C° 0 mm 2 mps 718 mmHg 75%
    23:00 +28°C° 0 mm 2 mps 718 mmHg 75%

    Tomorrow, 26 September, Wednesday

    Time Temperature Precipitation Wind Pressure Humidity
    00:00 +27°C° 0.1 mm 2 mps 717 mmHg 77%
    01:00 +27°C° 0.1 mm 2 mps 717 mmHg 78%
    02:00 +27°C° 0.1 mm 2 mps 717 mmHg 79%
    03:00 +27°C° 0 mm 2 mps 717 mmHg 80%
    04:00 +26°C° 0 mm 2 mps 717 mmHg 81%
    05:00 +26°C° 0 mm 2 mps 717 mmHg 83%
    06:00 +27°C° 0 mm 2 mps 718 mmHg 79%
    07:00 +28°C° 0 mm 2 mps 718 mmHg 76%
    08:00 +29°C° 0 mm 3 mps 719 mmHg 73%
    09:00 +30°C° 0 mm 3 mps 719 mmHg 67%
    10:00 +33°C° 0 mm 3 mps 719 mmHg 62%
    11:00 +34°C° 0 mm 3 mps 719 mmHg 57%
    12:00 +34°C° 0 mm 3 mps 718 mmHg 56%
    13:00 +34°C° 0 mm 3 mps 717 mmHg 55%
    14:00 +35°C° 0 mm 3 mps 716 mmHg 54%
    15:00 +34°C° 0.2 mm 3 mps 716 mmHg 57%
    16:00 +34°C° 0.2 mm 3 mps 716 mmHg 61%
    17:00 +32°C° 0.2 mm 2 mps 716 mmHg 64%
    18:00 +31°C° 1.1 mm 2 mps 716 mmHg 68%
    19:00 +30°C° 1.1 mm 3 mps 717 mmHg 71%
    20:00 +28°C° 1.1 mm 3 mps 717 mmHg 75%
    21:00 +28°C° 0.2 mm 3 mps 718 mmHg 76%
    22:00 +28°C° 0.2 mm 2 mps 718 mmHg 78%
    23:00 +27°C° 0.2 mm 2 mps 718 mmHg 79%

    Day after tomorrow, 27 September, Thursday

    Time Temperature Precipitation Wind Pressure Humidity
    00:00 +27°C° 0 mm 2 mps 717 mmHg 80%
    01:00 +27°C° 0 mm 2 mps 717 mmHg 80%
    02:00 +27°C° 0 mm 2 mps 717 mmHg 81%
    03:00 +26°C° 0.4 mm 1 mps 717 mmHg 82%
    04:00 +26°C° 0.4 mm 1 mps 717 mmHg 83%
    05:00 +26°C° 0.4 mm 1 mps 717 mmHg 84%
    06:00 +27°C° 0.3 mm 1 mps 717 mmHg 80%
    07:00 +28°C° 0.3 mm 2 mps 718 mmHg 76%
    08:00 +29°C° 0.3 mm 2 mps 719 mmHg 72%
    09:00 +31°C° 0.4 mm 2 mps 719 mmHg 66%
    10:00 +32°C° 0.4 mm 2 mps 719 mmHg 61%
    11:00 +34°C° 0.4 mm 3 mps 718 mmHg 56%
    12:00 +34°C° 0.8 mm 3 mps 718 mmHg 56%
    13:00 +34°C° 0.8 mm 2 mps 717 mmHg 55%
    14:00 +34°C° 0.8 mm 2 mps 716 mmHg 55%
    15:00 +33°C° 2.4 mm 3 mps 716 mmHg 62%
    16:00 +31°C° 2.4 mm 3 mps 716 mmHg 69%
    17:00 +29°C° 2.4 mm 3 mps 716 mmHg 75%
    18:00 +29°C° 0.4 mm 3 mps 717 mmHg 76%
    19:00 +28°C° 0.4 mm 3 mps 717 mmHg 78%
    20:00 +28°C° 0.4 mm 2 mps 718 mmHg 79%
    21:00 +27°C° 0 mm 2 mps 718 mmHg 79%
    22:00 +27°C° 0 mm 2 mps 718 mmHg 79%
    23:00 +27°C° 0 mm 2 mps 718 mmHg 79%

    28 September, Friday

    Time Temperature Precipitation Wind Pressure Humidity
    00:00 +27°C° 0.1 mm 2 mps 718 mmHg 80%
    01:00 +27°C° 0.1 mm 2 mps 717 mmHg 80%
    02:00 +26°C° 0.1 mm 1 mps 717 mmHg 81%
    03:00 +26°C° 0 mm 1 mps 717 mmHg 81%
    04:00 +26°C° 0 mm 1 mps 717 mmHg 81%
    05:00 +26°C° 0 mm 1 mps 717 mmHg 81%
    06:00 +27°C° 0 mm 1 mps 718 mmHg 77%
    07:00 +28°C° 0 mm 2 mps 718 mmHg 73%
    08:00 +29°C° 0 mm 2 mps 719 mmHg 69%
    09:00 +30°C° 0 mm 2 mps 719 mmHg 64%
    10:00 +31°C° 0 mm 2 mps 719 mmHg 59%
    11:00 +34°C° 0 mm 2 mps 719 mmHg 55%
    12:00 +34°C° 0.5 mm 3 mps 718 mmHg 54%
    13:00 +34°C° 0.5 mm 3 mps 717 mmHg 54%
    14:00 +34°C° 0.5 mm 3 mps 716 mmHg 54%
    15:00 +33°C° 1.3 mm 3 mps 716 mmHg 60%
    16:00 +31°C° 1.3 mm 3 mps 716 mmHg 66%
    17:00 +30°C° 1.3 mm 3 mps 716 mmHg 72%
    18:00 +29°C° 0.2 mm 3 mps 717 mmHg 73%
    19:00 +29°C° 0.2 mm 2 mps 717 mmHg 75%
    20:00 +28°C° 0.2 mm 2 mps 718 mmHg 77%
    21:00 +28°C° 0 mm 2 mps 718 mmHg 77%
    22:00 +28°C° 0 mm 2 mps 718 mmHg 77%
    23:00 +27°C° 0 mm 2 mps 718 mmHg 76%

    29 September, Saturday

    Time Temperature Precipitation Wind Pressure Humidity
    00:00 +27°C° 0.2 mm 2 mps 718 mmHg 78%
    01:00 +27°C° 0.2 mm 2 mps 717 mmHg 79%
    02:00 +26°C° 0.2 mm 1 mps 717 mmHg 81%
    03:00 +26°C° 0.3 mm 1 mps 717 mmHg 81%
    04:00 +26°C° 0.3 mm 1 mps 717 mmHg 81%
    05:00 +26°C° 0.3 mm 1 mps 717 mmHg 82%
    06:00 +27°C° 0 mm 1 mps 718 mmHg 77%
    07:00 +28°C° 0 mm 1 mps 719 mmHg 73%
    08:00 +29°C° 0 mm 2 mps 720 mmHg 69%
    09:00 +31°C° 0 mm 2 mps 720 mmHg 63%
    10:00 +33°C° 0 mm 3 mps 719 mmHg 57%
    11:00 +34°C° 0 mm 3 mps 719 mmHg 51%
    12:00 +35°C° 0 mm 3 mps 718 mmHg 50%
    13:00 +35°C° 0 mm 3 mps 718 mmHg 48%
    14:00 +35°C° 0 mm 3 mps 717 mmHg 47%
    15:00 +35°C° 0 mm 3 mps 717 mmHg 51%
    16:00 +34°C° 0 mm 3 mps 717 mmHg 55%
    17:00 +33°C° 0 mm 3 mps 717 mmHg 59%
    18:00 +31°C° 0 mm 2 mps 717 mmHg 61%
    19:00 +30°C° 0 mm 2 mps 718 mmHg 63%
    20:00 +29°C° 0 mm 2 mps 718 mmHg 66%
    21:00 +28°C° 0 mm 2 mps 718 mmHg 67%
    22:00 +28°C° 0 mm 2 mps 718 mmHg 68%
    23:00 +28°C° 0 mm 2 mps 718 mmHg 69%

    30 September, Sunday

    Time Temperature Precipitation Wind Pressure Humidity
    00:00 +27°C° 0 mm 2 mps 718 mmHg 71%
    01:00 +27°C° 0 mm 2 mps 717 mmHg 72%
    02:00 +27°C° 0 mm 2 mps 717 mmHg 74%
    03:00 +26°C° 0 mm 1 mps 717 mmHg 75%
    04:00 +26°C° 0 mm 1 mps 717 mmHg 76%
    05:00 +26°C° 0 mm 1 mps 717 mmHg 77%
    06:00 +27°C° 0 mm 1 mps 718 mmHg 73%
    07:00 +28°C° 0 mm 1 mps 719 mmHg 69%
    08:00 +30°C° 0 mm 1 mps 719 mmHg 65%
    09:00 +31°C° 0 mm 2 mps 719 mmHg 58%
    10:00 +32°C° 0 mm 2 mps 719 mmHg 52%
    11:00 +34°C° 0 mm 3 mps 719 mmHg 46%
    12:00 +35°C° 0 mm 3 mps 718 mmHg 45%
    13:00 +35°C° 0 mm 4 mps 717 mmHg 43%
    14:00 +36°C° 0 mm 4 mps 716 mmHg 42%
    15:00 +35°C° 0 mm 4 mps 716 mmHg 46%
    16:00 +34°C° 0 mm 3 mps 716 mmHg 51%
    17:00 +33°C° 0 mm 3 mps 716 mmHg 55%
    18:00 +31°C° 0 mm 3 mps 717 mmHg 57%
    19:00 +30°C° 0 mm 2 mps 717 mmHg 59%
    20:00 +29°C° 0 mm 2 mps 718 mmHg 61%
    21:00 +28°C° 0 mm 2 mps 717 mmHg 62%
    22:00 +28°C° 0 mm 2 mps 717 mmHg 64%
    23:00 +27°C° 0 mm 2 mps 717 mmHg 65%
    Show more